#timestamp,LO_Frequency,Hit,StdDev 
1629291615.0,286046998.5,N
1629291615.9,286046998.5,N
1629291635.7,286046998.1,N
1629291655.6,286046998.5,N
1629291675.4,286047000.9,N
1629291695.3,286046998.5,N
1629291715.1,286047001.2,N
1629291716.0,286047001.2,N
1629291735.8,286046998.1,N
1629291755.7,286046998.1,N
1629291775.5,286047000.3,N
1629291795.3,286047000.7,N
1629291815.2,286047000.5,N
1629291835.0,286047001.1,N
1629291835.9,286047001.1,N
1629291855.8,286047001.1,N
1629291875.6,286047000.9,N
1629291895.4,286047000.2,N
1629291915.3,286046999.8,N
1629291935.1,286047000.3,N
1629291955.8,286047000.1,N
1629291975.7,286047001.6,N
1629291995.5,286047002.1,N
1629292015.4,286047001.4,N
1629292035.2,286047003.9,N
1629292055.0,286047003.4,N
1629292055.9,286047003.4,N
1629292075.8,286047004.0,N
1629292095.6,286047004.0,N
1629292115.4,286047001.7,N
1629292135.3,286047002.1,N
1629292155.1,286047002.5,N
1629292175.9,286046999.7,N
1629292195.7,286047002.8,N
1629292215.5,286047002.5,N
1629292235.4,286047001.9,N
1629292255.2,286047001.4,N
1629292275.0,286047002.2,N
1629292276.0,286047002.2,N
1629292295.8,286047001.9,N
1629292315.6,286047002.3,N
1629292335.5,286047002.0,N
1629292355.3,286047001.3,N
1629292375.1,286047000.1,N
1629292395.9,286047001.6,N
1629292415.7,286047004.1,Y
1629292435.5,286046999.9,P
1629292455.4,286047001.2,N
1629292475.2,286047000.7,N
1629292495.1,286047001.1,N
1629292496.0,286047001.1,N
1629292515.8,286046998.3,N
1629292535.6,286046999.1,N
1629292555.5,286046999.4,N
1629292575.3,286046998.4,N
1629292595.1,286047000.5,N
1629292615.9,286047000.5,N
1629292635.7,286047002.6,N
1629292655.6,286047002.4,N
1629292675.4,286047000.4,N
1629292695.2,286047000.4,N
1629292715.1,286047001.1,N
1629292716.0,286047001.1,N
1629292735.8,286046999.1,N
1629292755.6,286046998.6,N
1629292775.5,286046998.8,N
1629292795.3,286046999.1,N
1629292815.2,286046999.4,N
1629292835.9,286046999.3,N
1629292855.7,286047001.1,N
1629292875.6,286046998.1,N
1629292895.4,286046998.1,N
1629292915.2,286046997.5,N
1629292935.1,286046997.2,N
1629292936.0,286046997.2,N
1629292955.8,286046998.8,N
1629292975.7,286046998.8,N
1629292995.5,286046998.4,N
1629293015.3,286046999.2,N
1629293035.2,286046999.3,N
1629293055.0,286046997.9,N
1629293055.9,286046997.9,N
1629293075.7,286046996.7,N
1629293095.6,286046996.8,N
1629293115.4,286046997.7,N
1629293135.3,286046999.2,N
1629293155.1,286046996.7,N
1629293156.0,286046996.7,N
1629293175.8,286046999.0,N
1629293195.7,286046999.9,N
1629293215.5,286047000.0,N
1629293235.3,286046998.8,N
1629293255.2,286046997.0,N
1629293275.0,286046999.4,N
1629293275.9,286046999.4,N
1629293295.8,286046996.9,N
1629293315.6,286046997.6,N
1629293335.4,286046997.4,N
1629293355.3,286046999.2,N
1629293375.1,286046997.7,N
1629293395.9,286046995.1,Y
1629293415.7,286046997.8,P
1629293435.5,286046995.4,P
1629293455.4,286046996.7,N
1629293475.2,286046997.2,N
1629293495.0,286046997.6,N
1629293495.9,286046997.6,N
1629293515.8,286046994.9,Y
1629293535.6,286046997.4,P
1629293555.5,286046997.3,P
1629293575.3,286046995.5,P
1629293595.1,286046995.4,Y
1629293615.9,286046998.9,P
1629293635.7,286046998.7,N
1629293655.5,286046997.1,P
1629293675.4,286046996.7,Y
1629293695.2,286047001.1,P
1629293715.1,286047000.3,N
1629293716.0,286047000.3,N
1629293735.8,286047000.4,N
1629293755.6,286047000.0,N
1629293775.5,286047000.0,N
1629293795.3,286047000.4,N
1629293815.1,286047000.1,N
1629293835.9,286047000.9,N
1629293855.7,286046999.8,N
1629293875.6,286047000.4,N
1629293895.4,286047002.3,N
1629293915.2,286047002.5,N
1629293935.1,286047002.0,N
1629293936.0,286047002.0,N
1629293955.8,286047001.3,N
1629293975.6,286047002.1,N
1629293995.5,286047002.3,N
1629294015.3,286047000.4,N
1629294035.2,286047000.3,N
1629294055.9,286047000.2,N
1629294075.7,286047000.7,N
1629294095.6,286046999.0,N
1629294115.4,286047000.5,N
1629294135.2,286046998.1,N
1629294155.1,286047000.9,N
1629294156.0,286047000.9,N
1629294175.8,286047000.7,N
1629294195.6,286047000.6,N
1629294215.5,286047001.0,N
1629294235.3,286047001.1,N
1629294255.2,286046998.9,N
1629294275.9,286046998.3,N
1629294295.7,286046998.1,N
1629294315.6,286046999.9,N
1629294335.4,286047000.4,N
1629294355.2,286047000.0,N
1629294375.1,286046998.1,N
1629294376.0,286046998.1,N
1629294395.8,286046998.5,N
1629294415.7,286047001.1,N
1629294435.5,286047002.3,N
1629294455.3,286047002.1,N
1629294475.2,286047000.1,N
1629294495.0,286047000.4,N
1629294495.9,286047000.4,N
1629294515.8,286047000.3,N
1629294535.6,286047000.6,N
1629294555.4,286046998.5,N
1629294575.3,286046998.3,N
1629294595.1,286047000.5,N
1629294596.0,286047000.5,N
1629294615.8,286047000.0,N
1629294635.7,286047001.1,N
1629294655.5,286047000.5,N
1629294675.4,286047002.1,N
1629294695.2,286047002.3,N
1629294715.0,286047001.3,N
1629294715.9,286047001.3,N
1629294735.8,286047003.9,N
1629294755.6,286047003.4,N
1629294775.4,286047004.0,N
1629294795.3,286047003.8,N
1629294815.1,286047003.4,N
1629294835.9,286047005.3,Y
1629294855.7,286047005.0,P
1629294875.5,286047004.9,N
1629294895.4,286047007.2,P
1629294915.2,286047006.7,N
1629294935.1,286047004.5,N
1629294936.0,286047004.5,N
1629294955.8,286047007.0,Y
1629294975.6,286047002.7,P
1629294995.5,286047002.6,N
1629295015.3,286047002.4,N
1629295035.1,286047002.1,N
1629295085.9,286047001.6,E
1629295095.8,286047004.3,N
1629295115.7,286047001.9,P
1629295135.5,286047002.4,N
1629295155.3,286047002.0,N
1629295175.2,286046999.8,N
1629295195.0,286046999.9,N
1629295195.9,286046999.9,N
